This is the latest recevied weather packets stored in our database for station/object HS6PNA-2. If no packets are shown the sender has not sent any weather packets the latest 10 day(s).
| Time | Temp. | Humidity | Pressure | Rain* | Wind** | Luminosity | Snow |
|---|---|---|---|---|---|---|---|
| 1777743200 | 29.44° C | 45% | 1003 hPa | - | - | 0 W/m² | - |
| 1777742276 | 29.44° C | 44% | 1003 hPa | - | - | 0 W/m² | - |
| 1777741352 | 29.44° C | 43% | 1003 hPa | - | - | 0 W/m² | - |
| 1777740921 | 29.44° C | 43% | 1003 hPa | - | - | 0 W/m² | - |
| 1777739997 | 29.44° C | 42% | 1004 hPa | - | - | 0 W/m² | - |
| 1777739072 | 29.44° C | 42% | 1004 hPa | - | - | 0 W/m² | - |
| 1777738148 | 29.44° C | 43% | 1004 hPa | - | - | 0 W/m² | - |
| 1777737223 | 29.44° C | 44% | 1004 hPa | - | - | 0 W/m² | - |
| 1777736299 | 29.44° C | 43% | 1004 hPa | - | - | 0 W/m² | - |
| 1777735374 | 29.44° C | 45% | 1004 hPa | - | - | 0 W/m² | - |
| 1777734450 | 30° C | 44% | 1004 hPa | - | - | 0 W/m² | - |
| 1777733525 | 30° C | 45% | 1004 hPa | - | - | 0 W/m² | - |
| 1777732601 | 29.44° C | 44% | 1003 hPa | - | - | 0 W/m² | - |
| 1777731676 | 29.44° C | 46% | 1003 hPa | - | - | 0 W/m² | - |
| 1777730752 | 29.44° C | 44% | 1003 hPa | - | - | 0 W/m² | - |
| 1777729827 | 29.44° C | 45% | 1002 hPa | - | - | 0 W/m² | - |
| 1777728903 | 29.44° C | 42% | 1002 hPa | - | - | 0 W/m² | - |
| 1777727978 | 29.44° C | 45% | 1002 hPa | - | - | 0 W/m² | - |
| 1777727054 | 28.89° C | 43% | 1001 hPa | - | - | 0 W/m² | - |
| 1777726129 | 29.44° C | 44% | 1001 hPa | - | - | 0 W/m² | - |
| 1777725205 | 30° C | 40% | 1001 hPa | - | - | 0 W/m² | - |
| 1777724280 | 30° C | 41% | 1001 hPa | - | - | 0 W/m² | - |
| 1777723356 | 28.89° C | 36% | 1001 hPa | - | - | 0 W/m² | - |
| 1777722431 | 28.89° C | 35% | 1000 hPa | - | - | 0 W/m² | - |
| 1777721507 | 28.89° C | 30% | 1000 hPa | - | - | 0 W/m² | - |
* Rain since midnight (hover to see other rain measurements)
** Current wind speed in m/s (hover to see current wind gust speed)